Weather History for Capri, Italy

Change the Weather History Date:

Saturday, November 3, 2012

  Actual Average Record
Temperature  
Mean Temperature 68 °F -  
Max Temperature 75 °F - - ()
Min Temperature 62 °F - - ()
Cooling Degree Days 4    
Growing Degree Days 18 (Base 50)    
Moisture  
Dew Point 60 °F    
Average Humidity 79    
Maximum Humidity 94    
Minimum Humidity 47    
Precipitation  
Precipitation 0.00 in - - ()
Sea Level Pressure  
Sea Level Pressure 30.01 in    
Wind  
Wind Speed 2 mph ()    
Max Wind Speed 5 mph    
Max Gust Speed -    
Visibility 8.6 miles    
Events      
T = Trace of Precipitation, MM = Missing Value Source: Averaged Metar Reports

Daily Weather History Graph

Daily Weather History Graph

Search for Another Location

Airport:

Trip Planner

Search our weather history database for the weather conditions in past years. The results will help you decide how hot, cold, wet, or windy it might be!

Date:

Astronomy

Nov. 03, 2012 Rise Set
Actual Time 6:35 AM CET 4:57 PM CET
Civil Twilight 6:07 AM CET 5:25 PM CET
Nautical Twilight 5:34 AM CET 5:57 PM CET
Astronomical Twilight 5:03 AM CET 6:29 PM CET
Moon 8:21 PM CET (11/3) 10:28 AM CET (11/3)
Length of Visible Light 11h 18m
Length of Day
10h 21m
Waning Gibbous, 82% of the Moon is Illuminated
Nov 3
Waning Gibbous
Nov 7
Last Quarter
Nov 13
New
Nov 20
First Quarter
Nov 28
Full

Hourly Weather History & Observations

Time (CET) Temp. Dew Point Humidity Pressure Visibility Wind Dir Wind Speed Gust Speed Precip Events Conditions
12:55 AM 66.2 °F 64.4 °F 94% 29.98 in 6.2 mi SW 3.5 mph - N/A   Scattered Clouds
1:00 AM 67 °F 65 °F 92% 29.97 in 12 mi SW 3.5 mph - -  
1:55 AM 66.2 °F 62.6 °F 88% 29.98 in 6.2 mi WSW 4.6 mph - N/A   Scattered Clouds
2:55 AM 64.4 °F 62.6 °F 94% 29.98 in 6.2 mi WSW 4.6 mph - N/A   Scattered Clouds
4:00 AM 66 °F 65 °F 94% 29.98 in 12 mi SW 3.5 mph - -   Partly Cloudy
6:55 AM 66.2 °F 60.8 °F 83% 29.98 in - Calm Calm - N/A   Clear
7:00 AM 65 °F 62 °F 85% 29.98 in 12 mi Calm Calm - -  
7:55 AM 62.6 °F 57.2 °F 82% 29.98 in - Calm Calm - N/A   Clear
8:55 AM 64.4 °F 60.8 °F 88% 29.98 in - Calm Calm - N/A   Clear
9:55 AM 66.2 °F 59.0 °F 78% 30.04 in - WSW 2.3 mph - N/A   Clear
10:00 AM 66 °F 60 °F 74% 30.03 in 12 mi WSW 2.3 mph - -  
10:55 AM 66.2 °F 60.8 °F 83% 30.04 in - West 2.3 mph - N/A   Clear
11:55 AM 68.0 °F 62.6 °F 83% 30.04 in - SSW 2.3 mph - N/A   Clear
12:55 PM 71.6 °F 55.4 °F 57% 30.04 in 6.2 mi WSW 2.3 mph - N/A   Scattered Clouds
1:00 PM 72 °F 56 °F 47% 30.04 in 12 mi WSW 2.3 mph - -  
1:55 PM 71.6 °F 57.2 °F 60% 30.04 in 6.2 mi SW 2.3 mph - N/A   Partly Cloudy
2:55 PM 75.2 °F 57.2 °F 53% 30.04 in 6.2 mi SW 2.3 mph - N/A   Partly Cloudy
3:55 PM 69.8 °F 53.6 °F 56% 30.04 in 6.2 mi SW 2.3 mph - N/A   Partly Cloudy
4:55 PM 64.4 °F 55.4 °F 73% 30.01 in 6.2 mi Calm Calm - N/A   Scattered Clouds
5:55 PM 64.4 °F 57.2 °F 77% 30.01 in 6.2 mi WSW 2.3 mph - N/A   Scattered Clouds
6:55 PM 64.4 °F 59.0 °F 83% 30.01 in - SW 2.3 mph - N/A   Clear
7:00 PM 65 °F 60 °F 77% 30.03 in 12 mi SW 2.3 mph - -  
7:55 PM 66.2 °F 62.6 °F 88% 30.01 in - SW 2.3 mph - N/A   Clear
8:55 PM 64.4 °F 60.8 °F 88% 30.01 in - Calm Calm - N/A   Clear
10:00 PM 64 °F 63 °F 94% 30.03 in 12 mi Calm Calm - -  
10:55 PM 64.4 °F 59.0 °F 83% 30.01 in - Calm Calm - N/A   Clear
11:55 PM 64.4 °F 59.0 °F 83% 30.01 in 6.2 mi Calm Calm - N/A   Scattered Clouds